Starlink 30991

operational
NORAD ID: 58484 Int'l Des: 2023-186 Owner: SPXS Country: US Constellation: starlink
LEOCIRCULAR

关于 Starlink 30991

正在加载描述...

实时位置

正在加载3D地球...

即将过境

高度历史

Altitude vs Time

uPlot chart will show altitude changes over time

两行轨道根数

1 58484U 23186M 25352.76155770 .00000379 00000-0 43112-4 0 9998
2 58484 43.0028 146.6839 0001355 266.3830 93.6857 15.02535468113672
Epoch: Dec 18, 2025 • Age: 22 hours

当前状态

高度 561.1 km
速度 7.58 km/s
星下点 -13.07°S, 150.86°E
发射日期 Dec 3, 2023
运行时间 2 years
类型 internet

技术详情

分类 Payload
质量 730.00 kg
干质量 700.00 kg
总质量 730.00 kg
长度 0.30 m
直径 4.10 m
跨度 29.00 m
形状 Box + pan
制造商 SPXS
平台类型 Starlink V2M
阶段状态 In Orbit
所有者/国家 SPXS/US

大型星座

Loading constellations...